User: anonymous   Login
Location: *
(51.1248°S, 108.4023°W)
Time: 10:32:13
(UTC+00:00)
Language:

COSMOS 2455 - Orbit

View from above orbital plane
View from above orbital plane
View from above satellite
View from above satellite

Ground track
Ground track

The orbit data is extracted from the following two-line orbital elements,

1 36095U 09063A   21267.98323860 -.00000042  00000-0  24067-4 0  9998
2 36095  67.1467 129.9402 0007147 292.2074  67.8252 13.96773234604227
Epoch (UTC): 24 September 2021 23:35:51
Eccentricity: 0.0007147
inclination: 67.1467°
perigee height: 900 km
apogee height: 910 km
right ascension of ascending node: 129.9402°
argument of perigee: 292.2074°
revolutions per day: 13.96773234
mean anomaly at epoch: 67.8252°
orbit number at epoch: 60422

The dashed part of the orbit path shows where the satellite is in the earth's shadow,  

DLR